Hors Challenge

L'Indus'Trail - Charleroi (5.00 km)

jeudi 26 août 2021

Le Classement original se trouve sur : http://www.chronorace.be
 
L'INDUS'TRAIL - CHARLEROI
DISTANCE : 5.00 km
jeudi 26 août 2021
 
Place Dos NOM Catégorie Pl/cat temps temps/km Vitesse
1 4021 D'AURILIO MARVIN H 1 0:16:27 03:17 18.24
2 3917 TONOLLI LOUIS H 2 0:17:49 03:34 16.84
3 4083 LONCKE BASTIEN H 3 0:18:52 03:46 15.90
4 4023 CULOT JEAN-MARC H 4 0:19:16 03:51 15.57
5 3804 FOURREZ JEAN-PHILIPPE H 5 0:20:21 04:04 14.74
6 3947 VAN WAETERMEULEN YANIS H 6 0:20:32 04:06 14.61
7 4039 BLARIAUX MATHIEU H 7 0:20:41 04:08 14.51
8 3999 SACCHI ENZO H 8 0:21:32 04:18 13.93
9 3992 MONTIA AL.... H 9 0:21:40 04:20 13.85
10 3980 CALCAGNO MASSIMO H 10 0:22:00 04:24 13.64
11 3937 PILLOD JULIEN H 11 0:22:01 04:24 13.63
12 3897 BLAVIER MATHIEU H 12 0:22:03 04:25 13.61
13 3726 CORNEE SAMUEL H 13 0:22:09 04:26 13.55
14 4100 ROUSSAUX GUILLAUME H 14 0:22:09 04:26 13.55
15 3862 CLARA CHRISTOPHE H 15 0:22:30 04:30 13.34
16 3805 THEYS LUCIEN H 16 0:22:32 04:30 13.32
17 3915 DEROOVER DEBORAH F 1 0:22:32 04:30 13.32
18 3773 LEBOUTTE CHRISTIAN H 17 0:22:43 04:33 13.21
19 3762 D’HALLEWIN ERWANN H 18 0:23:18 04:40 12.88
20 3943 DELLOGE BENJAMIN H 19 0:23:25 04:41 12.81
21 3991 GOOSSENS CEDRIC H 20 0:23:30 04:42 12.77
22 3945 RUELLE MALLORY H 21 0:23:54 04:47 12.55
23 4055 EL HOURAIRI ABDELMJID H 22 0:23:54 04:47 12.55
24 3853 BÉNITO RODRIGUEZ LUCAS H 23 0:23:57 04:47 12.53
25 3970 DE SOUSA PINTO DIDIER H 24 0:23:58 04:48 12.52
26 4056 EL HOURAIRI EL MEDHI H 25 0:24:04 04:49 12.47
27 3881 LEFEBVRE ROMAIN H 26 0:24:13 04:51 12.39
28 3784 VAN HAMME MARTIN H 27 0:24:15 04:51 12.37
29 4096 MEHDI HEUSDAINS H 28 0:24:15 04:51 12.37
30 3885 DELPORTE NATHAN H 29 0:24:20 04:52 12.33
31 3609 HENRIET LOUIS H 30 0:24:22 04:52 12.31
32 3656 RENDERS THOMAS H 31 0:24:47 04:57 12.11
33 3725 LEBOUTTE JULIEN H 32 0:24:50 04:58 12.08
34 4049 LOUIS JOHN H 33 0:24:59 05:00 12.01
35 3957 EVERARD ETIENNE H 34 0:24:59 05:00 12.01
36 4074 TRINE CHARLES H 35 0:25:03 05:01 11.98
37 3602 BAETMANS GAUTIER H 36 0:25:29 05:06 11.77
38 3790 BEUMIER JULIEN H 37 0:25:43 05:09 11.67
39 3617 DUWEZ JOLAN H 38 0:26:03 05:13 11.52
40 4032 GRAWET NICOLAS H 39 0:26:07 05:13 11.49
41 3961 ALICE DAVID H 40 0:26:24 05:17 11.37
42 3974 LEYMAN LAURA F 2 0:26:29 05:18 11.33
43 3768 BEUMIER LUCAS H 41 0:26:34 05:19 11.29
44 4015 LEURQUIN FRÉDÉRIC H 42 0:26:36 05:19 11.28
45 3798 VAN THIELEN ANTHONY H 43 0:26:44 05:21 11.22
46 3929 DE VLEMMINCK NONO F 3 0:26:59 05:24 11.12
47 3879 VIROULAUD DAMIEN H 44 0:27:11 05:26 11.04
48 4098 SARTON LOIC H 45 0:27:11 05:26 11.04
49 3958 VAN GEEL SARAH F 4 0:27:17 05:27 11.00
50 3767 MANZO LUCAS H 46 0:27:28 05:30 10.92
51 3880 KINKIN CAROKINKIN F 5 0:27:32 05:30 10.90
52 2016 NR 2016 H 47 0:27:34 05:31 10.88
53 4000 BRACKE CHRISTELLE F 6 0:27:35 05:31 10.88
54 3963 LAMOTTE ROMU H 48 0:27:43 05:33 10.83
55 4071 POTAUFEUX JEAN-EMILE H 49 0:27:43 05:33 10.83
56 4038 PLUMAT PIERRE-HENRI H 50 0:27:47 05:33 10.80
57 4073 DE LAVAREILLE JEAN-FRANÇOIS H 51 0:27:48 05:34 10.79
58 4042 DUJARDIN ALEX H 52 0:27:52 05:34 10.77
59 3981 MIKA HELL MIKA HELL H 53 0:27:57 05:35 10.74
60 3746 CHIQUE DAMIEN H 54 0:28:13 05:39 10.63
61 3860 SALVADORE OLIVIER H 55 0:28:15 05:39 10.62
62 3912 GUERRA OLIVIER H 56 0:28:15 05:39 10.62
63 3930 GIUSTO GIANMARCO H 57 0:28:19 05:40 10.60
64 3792 DI BARI ISABELLE F 7 0:28:30 05:42 10.53
65 3899 JORIS OLIVIER H 58 0:28:43 05:45 10.45
66 3604 DEWEZ LAURENT H 59 0:28:54 05:47 10.38
67 3783 VANDELOISE KEVIN H 60 0:28:54 05:47 10.38
68 3962 P.... AMÉLIE F 8 0:28:54 05:47 10.38
69 3959 VAN GEEL MARYAM F 9 0:28:57 05:47 10.36
70 3613 FAYT KARL H 61 0:29:01 05:48 10.34
71 3924 LACOUR ELISE F 10 0:29:03 05:49 10.33
72 3824 RENCKENS LOÏC H 62 0:29:03 05:49 10.33
73 3606 JAUME LIONEL H 63 0:29:06 05:49 10.31
74 3833 MALACORT JEAN-FRANCOIS H 64 0:29:07 05:49 10.31
75 4035 RUBINO FLORIAN H 65 0:29:16 05:51 10.25
76 3627 DESPAS PERRINE F 11 0:29:21 05:52 10.22
77 3756 CARTON ALEXANDRE H 66 0:29:23 05:53 10.21
78 3838 MICHEL MAEVE F 12 0:29:25 05:53 10.20
79 3887 GAUVAIN AUDREY F 13 0:29:25 05:53 10.20
80 3907 COLACI MASSIMO H 67 0:29:35 05:55 10.14
81 3893 LINDER LAURENCE F 14 0:29:50 05:58 10.06
82 3891 VAN HAMME EMILIE F 15 0:29:52 05:58 10.05
83 3829 VAN DEN DYCKE SARAH F 16 0:29:56 05:59 10.02
84 4013 ZINGLE ETHAN H 68 0:29:59 06:00 10.01
85 3662 NR 3662 H 69 0:30:01 06:00 10.00
86 3841 CASSART ALEXANDRE H 70 0:30:03 06:01 9.98
87 4048 HARVENT ETHAN H 71 0:30:03 06:01 9.98
88 3895 BELLADONE FANNY F 17 0:30:09 06:02 9.95
89 3871 FOUCART SÉBASTIEN H 72 0:30:11 06:02 9.94
90 4063 BOGAERTS BENOIT H 73 0:30:14 06:03 9.92
91 3778 DETROZ CLARA F 18 0:30:21 06:04 9.89
92 3952 VAN PARIJS STEPHANIE F 19 0:30:40 06:08 9.78
93 3736 COLMANT HÉLÈNE F 20 0:30:44 06:09 9.76
94 3909 LAIXHAY JOSINE F 21 0:30:51 06:10 9.73
95 3994 BEDORET VINCENT H 74 0:30:53 06:11 9.72
96 3741 DABROWSKI ANTOINE H 75 0:30:55 06:11 9.71
97 3759 BACHKATOV DIMITRI H 76 0:30:57 06:11 9.69
98 3908 CORDIER CATHY F 22 0:30:59 06:12 9.68
99 3926 PATERNOSTRE ZOÉ F 23 0:31:02 06:12 9.67
100 4028 GEUBEL JEAN-FRANÇOIS H 77 0:31:03 06:13 9.66
101 2070 BRUAUX NATHALIE F 24 0:31:06 06:13 9.65
102 3886 RICCO DAMIEN H 78 0:31:08 06:14 9.64
103 3925 PAUWELS VICTORIA F 25 0:31:08 06:14 9.64
104 3883 DEVAL BENOIT H 79 0:31:20 06:16 9.58
105 3870 BOTTRIAUX BERNARD H 80 0:31:21 06:16 9.57
106 3896 BICEGO CAROLINA F 26 0:31:21 06:16 9.57
107 3866 BALSEAUX DAVID H 81 0:31:22 06:16 9.57
108 3905 FOX BÉNÉDICTE F 27 0:31:22 06:16 9.57
109 3898 SERVAIS EMMANUEL H 82 0:31:22 06:16 9.57
110 3904 VALCKE VANES F 28 0:31:24 06:17 9.56
111 3832 LAENEN SIMON H 83 0:31:35 06:19 9.50
112 3861 HARVENT ETIENNE H 84 0:31:37 06:19 9.49
113 4079 STREEL MICHELINE F 29 0:31:39 06:20 9.48
114 4070 DUBOIS GERALDINE F 30 0:31:40 06:20 9.48
115 4062 LEFEVER MATHEO H 85 0:31:44 06:21 9.46
116 3914 ROGOWSKI MATEUSZ H 86 0:31:44 06:21 9.46
117 4004 LEBRUN THOMAS H 87 0:31:49 06:22 9.43
118 3819 BOUDELET RAPHAELLE F 31 0:31:52 06:22 9.42
119 3903 VALCKE VÉRO F 32 0:31:52 06:22 9.42
120 3780 ZAFFARANA BAPTISTE H 88 0:31:53 06:23 9.41
121 3807 PAGNAN ELODIE H 89 0:31:53 06:23 9.41
122 3975 LEYMAN PAULINE F 33 0:31:53 06:23 9.41
123 4029 BERNARD SOPHIE F 34 0:31:53 06:23 9.41
124 3624 RAMART JULIEN H 90 0:31:54 06:23 9.41
125 3808 MUSSOI WENDY H 91 0:31:54 06:23 9.41
126 4007 LORITTO DEBORAH F 35 0:31:57 06:23 9.39
127 3863 ALLEGAERT LUCIE F 36 0:31:57 06:23 9.39
128 3941 DESMET PAULINE F 37 0:31:58 06:24 9.39
129 3865 PERMENTIER ELOÏSE F 38 0:31:59 06:24 9.38
130 3732 MARTIN PIERRE H 92 0:32:01 06:24 9.37
131 3944 CAUDRON MAXIME H 93 0:32:01 06:24 9.37
132 3742 VAN DORPEA BENJAMIN H 94 0:32:06 06:25 9.35
133 3831 LATINIS JULIEN H 95 0:32:07 06:25 9.34
134 3727 MABILLE OLIVIER H 96 0:32:08 06:26 9.34
135 4076 SOTIAU LESOIL HARMONY F 39 0:32:09 06:26 9.33
136 3933 FIASSE ARNAUD H 97 0:32:09 06:26 9.33
137 3950 COLLARD CEDRIC H 98 0:32:13 06:27 9.31
138 3733 BOSCHI ANAIS F 40 0:32:13 06:27 9.31
139 3995 POPPOE FRANCESCA F 41 0:32:14 06:27 9.31
140 3748 BERTHALAY PAULINE F 42 0:32:15 06:27 9.30
141 3916 VANDERCAM CHRISTOPHE H 99 0:32:16 06:27 9.30
142 3830 LATINIS CÉLINE F 43 0:32:16 06:27 9.30
143 3771 BULTEZ LYNNDIA F 44 0:32:18 06:28 9.29
144 3769 BEUMIER VIRGINIE F 45 0:32:20 06:28 9.28
145 4097 HAUBOURDIN NOÉMIE F 46 0:32:21 06:28 9.28
146 4014 DUPÉROUX LAETITIA F 47 0:32:23 06:29 9.27
147 3864 HANOTIEAU ALEXANDRE H 100 0:32:23 06:29 9.27
148 4009 RÜTZE KATLEEN F 48 0:32:24 06:29 9.26
149 3744 VERSCHAEVE JULIEN H 101 0:32:28 06:30 9.24
150 3949 GATHON CLAUDIA H 102 0:32:30 06:30 9.23
151 3738 GODARD INÈS F 49 0:32:31 06:30 9.23
152 3836 WARTIQUE ÉRIC H 103 0:32:31 06:30 9.23
153 4059 DESOUTTER VINCENT H 104 0:32:31 06:30 9.23
154 3654 LANOY MARINE F 50 0:32:32 06:30 9.22
155 4089 LOQUET CAMILLE F 51 0:32:32 06:30 9.22
156 3889 DELMARCHE CHARLOTTE F 52 0:32:34 06:31 9.21
157 3932 PASCALINE DUPUIS F 53 0:32:34 06:31 9.21
158 3751 MOSSAY FREDERIQUE F 54 0:32:36 06:31 9.20
159 4094 SULIMOWSKI GABRIELLE F 55 0:32:36 06:31 9.20
160 4016 BAUDET VALENTIN H 105 0:32:37 06:31 9.20
161 3894 VAN HAMME XAVIER H 106 0:32:44 06:33 9.17
162 4008 PRADE SOPHIE F 56 0:32:44 06:33 9.17
163 3919 GOSSEYE MARIE F 57 0:32:45 06:33 9.16
164 4095 MARET ALINE F 58 0:32:56 06:35 9.11
165 3803 LISON FANNY F 59 0:32:56 06:35 9.11
166 3969 JAR PASCAL H 107 0:32:56 06:35 9.11
167 3936 BOUCHEZ MARIE F 60 0:32:56 06:35 9.11
168 3043 DEPREZ EMMA F 61 0:32:57 06:35 9.11
169 3935 KLIS CATHERINE F 62 0:32:57 06:35 9.11
170 4045 FLAMENT LUDOVIC H 108 0:33:00 06:36 9.09
171 3839 WERY NATHALIE F 63 0:33:00 06:36 9.09
172 3954 GELEZ MARIE HÉLÈNE F 64 0:33:01 06:36 9.09
173 3608 VAN REUSEL CHRISTOPHE H 109 0:33:02 06:36 9.08
174 3859 KEMPENERS TIZIANA F 65 0:33:03 06:37 9.08
175 3892 BARAZZONI THOMAS H 110 0:33:04 06:37 9.07
176 3788 HENDRICKX MAXIME H 111 0:33:05 06:37 9.07
177 4034 DELTENRE QUENTIN H 112 0:33:05 06:37 9.07
178 3766 VERMEYLEN BERNADETTE F 66 0:33:05 06:37 9.07
179 3728 GARBAR EMILIE F 67 0:33:05 06:37 9.07
180 4033 BRICLET ANNE-LAURE F 68 0:33:06 06:37 9.06
181 3772 BULTEZ ADIANA F 69 0:33:06 06:37 9.06
182 3918 CRANSQUINT LAURANE F 70 0:33:10 06:38 9.05
183 3951 CROIX JONATHAN H 113 0:33:12 06:38 9.04
184 3781 COLLIN LOUISE F 71 0:33:17 06:39 9.01
185 3667 DEMULDER MARINE F 72 0:33:17 06:39 9.01
186 4050 LOUIS OCÉANE F 73 0:33:20 06:40 9.00
187 3973 VERCAMMEN BRIGITTE F 74 0:33:21 06:40 9.00
188 4046 GEONET SABINE F 75 0:33:29 06:42 8.96
189 3928 STIEVENART PAULINE F 76 0:33:30 06:42 8.96
190 3755 DUMONT ANTOINE H 114 0:33:37 06:43 8.93
191 3953 MAROT BENOIT H 115 0:33:38 06:44 8.92
192 3931 MANSOUR IDIR H 116 0:33:39 06:44 8.92
193 3869 FAZIO MAURRO H 117 0:33:39 06:44 8.92
194 3797 TUBIERMONT FABIENNE F 77 0:33:39 06:44 8.92
195 3847 MATAGNE JONATHAN H 118 0:33:41 06:44 8.91
196 4077 MABOGE ZOÉ F 78 0:33:42 06:44 8.90
197 3758 DUMONT COLINE F 79 0:33:42 06:44 8.90
198 4065 GHYSELINCK ANNICK F 80 0:33:50 06:46 8.87
199 3971 VANIEKAUT BENOIT H 119 0:33:52 06:46 8.86
200 3884 LOWSKY ALEXANDRA F 81 0:33:58 06:48 8.83
201 3764 VAN LUNTER HELOISE F 82 0:34:01 06:48 8.82
202 3750 TEUGELS MARIE-FRANCE F 83 0:34:02 06:48 8.82
203 3737 PIERRE FLORENT H 120 0:34:04 06:49 8.81
204 3777 CHAPEAUX JUSTINE F 84 0:34:04 06:49 8.81
205 4053 LABAR SALOMÉ F 85 0:34:04 06:49 8.81
206 4006 GILSON NOÉMIE F 86 0:34:05 06:49 8.80
207 3976 BLAVIER CHARLOTTE F 87 0:34:06 06:49 8.80
208 4052 GUSBIN FLORENCE F 88 0:34:07 06:49 8.79
209 3888 MESDAGH AURORE F 89 0:34:10 06:50 8.78
210 3873 CHABOT AGATHE F 90 0:34:11 06:50 8.78
211 4054 SIMONS MANON F 91 0:34:17 06:51 8.75
212 3987 LURQUIN MARIE F 92 0:34:21 06:52 8.74
213 3816 TOCK FLORIAN H 121 0:34:21 06:52 8.74
214 4010 BELLIER JUSTINE F 93 0:34:25 06:53 8.72
215 4011 GIANNINO ALEXIA F 94 0:34:26 06:53 8.71
216 3986 COULON MARIE F 95 0:34:27 06:53 8.71
217 4036 RUBINO AMANDINE F 96 0:34:27 06:53 8.71
218 4041 DUJARDIN CHARLES H 122 0:34:36 06:55 8.67
219 3740 LIÉTARD RÉGINE F 97 0:34:36 06:55 8.67
220 3837 VERSCHOREN DAVID H 123 0:34:37 06:55 8.67
221 3787 HERMAN CLAUDE H 124 0:34:39 06:56 8.66
222 3979 GIURBINO GIOVANNA F 98 0:34:40 06:56 8.66
223 3982 BUISSART NICOLAS H 125 0:34:43 06:57 8.64
224 3729 VAN REYBROECK ANTOINE H 126 0:34:45 06:57 8.63
225 3956 FLONET NATHALIE F 99 0:34:46 06:57 8.63
226 3734 GARIN CAROLINE F 100 0:34:47 06:57 8.63
227 3843 CHARLIER THIBAUT H 127 0:34:51 06:58 8.61
228 3752 VERMEERSCH JULIETTE F 101 0:34:51 06:58 8.61
229 3844 MOERMAN DAMIEN H 128 0:34:53 06:59 8.60
230 4067 ROELANDT ANNE-FRANCE F 102 0:34:55 06:59 8.59
231 4051 COURTAIN MICHEL H 129 0:34:55 06:59 8.59
232 3858 BEAUCLAIRE VALÉRIE F 103 0:34:56 06:59 8.59
233 3960 LEVY AMANDINE F 104 0:34:57 06:59 8.59
234 3753 MASSET MURIEL F 105 0:34:58 07:00 8.58
235 4043 DUJARDIN CELIA F 106 0:34:59 07:00 8.58
236 4026 LÉONARD GUILLAUME H 130 0:35:00 07:00 8.57
237 3610 BEUGNIES JÉRÔME H 131 0:35:01 07:00 8.57
238 3365 WATT JEAN-CHRISTOPHE H 132 0:35:02 07:00 8.56
239 4069 MAROIT EMILIE F 107 0:35:02 07:00 8.56
240 3757 LONCKE ELINORE F 108 0:35:02 07:00 8.56
241 3989 DREZE BELINDA F 109 0:35:05 07:01 8.55
242 3948 LÉONARD MARIE F 110 0:35:06 07:01 8.55
243 3818 DIEPENDAELE PIERRE H 133 0:35:07 07:01 8.54
244 3876 ALAIMO NICOLAS H 134 0:35:11 07:02 8.53
245 3998 MARTYNOVA NADIA F 111 0:35:12 07:02 8.52
246 3923 HERMANS VERONIQUE F 112 0:35:13 07:03 8.52
247 3965 VE..... JO...... H 135 0:35:15 07:03 8.51
248 3996 TARGOWSKI KRZYTOF H 136 0:35:19 07:04 8.50
249 3964 RECHENY RUTGER H 137 0:35:20 07:04 8.49
250 4060 LEFEVER TIMOTHE H 138 0:35:22 07:04 8.48
251 4061 LEFEVER BENOIT H 139 0:35:22 07:04 8.48
252 3664 MOINE MÉLANIE F 113 0:35:23 07:05 8.48
253 3655 DUMONT TATIANA F 114 0:35:24 07:05 8.48
254 4027 BANETON CHRISTOPHE H 140 0:35:28 07:06 8.46
255 3785 AKAL EMEL F 115 0:35:29 07:06 8.46
256 4037 PEETERBROECK CELINE F 116 0:35:29 07:06 8.46
257 3786 ANIQUE FABIENNE F 117 0:35:29 07:06 8.46
258 3763 GENET JADE F 118 0:35:36 07:07 8.43
259 3657 DE COUVREUR MATHILDE F 119 0:35:44 07:09 8.40
260 3765 DOUILLET CATHERINE F 120 0:35:44 07:09 8.40
261 3760 TILMANT CATHY F 121 0:35:44 07:09 8.40
262 3868 MYAR BOCHRA F 122 0:35:47 07:09 8.39
263 3659 DEWOLF DELPHINE F 123 0:35:50 07:10 8.37
264 3745 VERLINDEN ELODIE F 124 0:35:52 07:10 8.37
265 4024 LEFEVRE CATHERINE F 125 0:35:52 07:10 8.37
266 3663 MOINE TIPHANIE F 126 0:35:52 07:10 8.37
267 4086 NIEDWORAK ALAIN H 141 0:35:58 07:12 8.34
268 4012 HOUZÉ JONH H 142 0:36:04 07:13 8.32
269 3658 PADOVAN MARGAUX F 127 0:36:05 07:13 8.32
270 3817 VANDERMEULEN JULIE F 128 0:36:05 07:13 8.32
271 3875 GROSLAMBERT CAMILLE F 129 0:36:08 07:14 8.30
272 3809 MINET ANTHONY H 143 0:36:10 07:14 8.30
273 4022 COGNIAT AMÉLIE H 144 0:36:10 07:14 8.30
274 3791 DOSIMONT ANN-CATHERINE F 130 0:36:14 07:15 8.28
275 3990 SIO JAMA-LEILA F 131 0:36:18 07:16 8.27
276 3652 TERRASI DIMITRI H 145 0:36:24 07:17 8.24
277 3603 AMELII STÉPHANIE F 132 0:36:26 07:17 8.24
278 3968 RITS CAMILLE F 133 0:36:26 07:17 8.24
279 3911 PERNA GIUSEPPA F 134 0:36:27 07:17 8.23
280 3779 PIRSON NATHALIE F 135 0:36:29 07:18 8.22
281 3850 PULCI VIRGINIE F 136 0:36:30 07:18 8.22
282 3665 TOUSSAINT JÉRÔME H 146 0:36:31 07:18 8.22
283 3840 MICHEL LUC H 147 0:36:33 07:19 8.21
284 3782 ERNAUT ANNELORE F 137 0:36:35 07:19 8.20
285 4087 WIESEMES SANDRINE F 138 0:36:37 07:19 8.19
286 4031 MANSOURI DRISS H 148 0:36:37 07:19 8.19
287 3985 PLERIOS EVA F 139 0:36:39 07:20 8.19
288 4047 LEONET PATRICIA F 140 0:36:41 07:20 8.18
289 4080 NIGRO PIERRE FIORE H 149 0:36:44 07:21 8.17
290 3938 DEWELLE LUDIVINE F 141 0:36:45 07:21 8.16
291 3793 SNAUWAERT LUCAS H 150 0:36:45 07:21 8.16
292 3794 NORMAND NICOLAS H 151 0:36:47 07:21 8.16
293 3795 PIPLART EMMA F 142 0:36:48 07:22 8.15
294 3789 JEUNIEAUX MAUD F 143 0:36:57 07:23 8.12
295 3874 SIBRET SASKIA F 144 0:37:00 07:24 8.11
296 4020 BECKER LINDSAY F 145 0:37:01 07:24 8.11
297 4066 STORME AUDREY F 146 0:37:02 07:24 8.10
298 3922 BÉNITE RODRIGUEZ LÉOPOLDO H 152 0:37:09 07:26 8.08
299 3993 SPATARO ANNE F 147 0:37:10 07:26 8.07
300 3997 DE SURAY ANNE F 148 0:37:16 07:27 8.05
301 3612 FOSTIER CAPUCINE F 149 0:37:28 07:30 8.01
302 3731 NOYON FRANÇOISE F 150 0:37:28 07:30 8.01
303 3842 ANDRÉ CÉLINE F 151 0:37:43 07:33 7.96
304 3921 DODRE JESSICA F 152 0:37:44 07:33 7.95
305 3846 LECOMTE SYLVIE F 153 0:38:02 07:36 7.89
306 4093 DURAND EMILIE F 154 0:38:09 07:38 7.86
307 3900 HUBART SARAH H 153 0:38:10 07:38 7.86
308 3906 PARMENTIER STEPHANIE F 155 0:38:22 07:40 7.82
309 3902 MOULEUR TIFFANY F 156 0:38:23 07:41 7.82
310 3878 ROMANO ELENA F 157 0:38:27 07:41 7.80
311 3856 GIACOMETTI THÉO H 154 0:38:27 07:41 7.80
312 3854 BENITO RODRIGUEZ LÉA F 158 0:38:31 07:42 7.79
313 3877 ROMANO LARA F 159 0:38:32 07:42 7.79
314 4091 PERNA FRANCESCO H 155 0:38:33 07:43 7.78
315 3770 BEGET FABIENNE F 160 0:38:43 07:45 7.75
316 3845 FAVERLY VANESSA F 161 0:38:54 07:47 7.71
317 3972 CULOT MICHELINE H 156 0:38:55 07:47 7.71
318 3867 RUCQUOY JUSTINE F 162 0:38:57 07:47 7.70
319 3761 MUSCAS MASSIMO H 157 0:39:00 07:48 7.69
320 3739 DELCOURT SEVERINE F 163 0:39:00 07:48 7.69
321 3666 BARTHELS ROSELINE F 164 0:39:11 07:50 7.66
322 3743 COLIN LOUIS H 158 0:39:48 07:58 7.54
323 3988 CIYALIDI SARA F 165 0:39:49 07:58 7.54
324 3910 MARCQ SÉGOLÈNE F 166 0:39:58 08:00 7.51
325 3942 CANAVALE SARAH F 167 0:40:02 08:00 7.49
326 3490 DEVALCK THIERRY H 159 0:40:09 08:02 7.47
327 3806 LESOIL THIERRY H 160 0:40:10 08:02 7.47
328 3747 SMAL SÉVERINE F 168 0:40:11 08:02 7.47
329 3828 D'AGOSTINO RACHEL F 169 0:40:14 08:03 7.46
330 3977 SCHOREELS MARC H 161 0:40:15 08:03 7.45
331 3827 D'AGOSTINO REBECCA F 170 0:40:20 08:04 7.44
332 3730 MARIOTTI ANNA LISA F 171 0:40:33 08:07 7.40
333 3966 PEGORARO ROBERTO H 162 0:40:49 08:10 7.35
334 4005 VERRECKT MARIE F 172 0:40:52 08:10 7.34
335 3848 VAN OSSELAER FRANÇOISE F 173 0:40:53 08:11 7.34
336 4088 BRUNO SARA F 174 0:40:59 08:12 7.32
337 4090 KERYHUEL OLIVIER H 163 0:41:03 08:13 7.31
338 3882 DEMARBRE MAÏTÉ F 175 0:41:10 08:14 7.29
339 3920 BRICLET LYDIE F 176 0:41:28 08:18 7.24
340 3946 FONT OLIVIER H 164 0:41:36 08:19 7.21
341 4057 RODIOS DIMITRI H 165 0:41:38 08:20 7.21
342 3852 CONTU REBECCA F 177 0:41:39 08:20 7.20
343 3616 TERMOLLE TIMOTHY H 166 0:41:39 08:20 7.20
344 3901 DEFFENSE MARIE F 178 0:41:39 08:20 7.20
345 3615 MOSKWIAK MAÏTÉ F 179 0:41:42 08:20 7.20
346 4058 RODIOS GABRIELLE F 180 0:42:04 08:25 7.13
347 3967 LEGER AMILIE F 181 0:42:06 08:25 7.13
348 3799 MACHELART MICHAEL H 167 0:42:48 08:34 7.01
349 3802 SCULIER GUILMENE F 182 0:43:04 08:37 6.97
350 3601 JACQUES LAURENCE F 183 0:43:27 08:41 6.91
351 4003 ROVILLOD LUC H 168 0:43:30 08:42 6.90
352 4002 BRENNET DOMINIQUE F 184 0:43:30 08:42 6.90
353 4078 NOIRET FRANCOISE F 185 0:43:33 08:43 6.89
354 4040 DRESSE NATHALIE F 186 0:43:53 08:47 6.84
355 4075 VERONESE THERESA F 187 0:44:03 08:49 6.81
356 3826 DE WANNEMAEKER HANNELORE F 188 0:44:07 08:49 6.80
357 3825 LAVIS ELÉONORE F 189 0:44:15 08:51 6.78
358 3749 BOULANGER DOLORES F 190 0:44:23 08:53 6.76
359 3849 CONTU SABRINA F 191 0:44:27 08:53 6.75
360 4044 DANDOIS JULIE F 192 0:44:39 08:56 6.72
361 4017 DI NUNZIO DELINA F 193 0:44:50 08:58 6.69
362 4082 STASSIN KRYSTEL F 194 0:44:52 08:58 6.69
363 4064 PIRSON LYDIA F 195 0:44:52 08:58 6.69
364 3934 WILLIAME GERALDINE F 196 0:45:13 09:03 6.64
365 3851 CONTU DIEGO H 169 0:45:16 09:03 6.63
366 4068 PROCES CHARLOTTE F 197 0:45:45 09:09 6.56
367 4092 KABEYA MICHEL H 170 0:45:51 09:10 6.54
368 4025 GODFROID JOHAN H 171 0:46:02 09:12 6.52
369 4072 SAELENS GAUTHIER H 172 0:46:48 09:22 6.41
370 3978 BOURENINA ELENA F 198 0:47:12 09:26 6.36
371 3800 BERNARD DAPHNÉ F 199 0:48:12 09:38 6.23
372 3801 LESOINNE LAURENCE F 200 0:48:14 09:39 6.22
373 3955 BOURLARD ALEXANDRINE F 201 0:48:45 09:45 6.15
374 3614 KEMPEN SYLVAIN H 173 0:49:03 09:49 6.12
375 4030 MANSOURI AMAR H 174 0:49:10 09:50 6.10
376 4081 STASSIN MICHEL H 175 0:49:13 09:51 6.10
377 3629 BOLAND CAMILLE F 202 0:49:34 09:55 6.05
378 3628 DARIMONT CÉLINE F 203 0:49:35 09:55 6.05
379 3872 DOMINGUEZ LEON FELICIA F 204 0:55:07 11:01 5.44
380 4001 ELOY JULIE F 205 0:55:07 11:01 5.44
381 4322 MAHIA SEBASTIEN H 176 0:58:13 11:38 5.15
382 3669 LORIAUX FLORIANE F 206 1:01:01 12:12 4.92
383 3619 TCHAKO DEUTCHA ROLANDE NADEGE F 207 1:01:05 12:13 4.91
384 3940 DEFECHEREUX JEAN-PHILIPPE H 177 1:04:50 12:58 4.63
385 3890 FREITAS DA SILVA CATIA F 208 1:04:51 12:58 4.63
386 3855 FRATTA GARANCE F 209 1:05:23 13:04 4.59
387 3857 GIACOMETTI FABIAN H 178 1:05:37 13:07 4.57
388 4084 RIEGER EDITH F 210 1:07:07 13:25 4.47
389 4085 MARY ISABELLE F 211 1:07:22 13:28 4.45
390 3653 VERHAUWEN MAGALI F 212 1:08:03 13:36 4.41
391 3626 MALACORD GAËLLE F 213 1:08:12 13:38 4.40
392 3618 DELHAYE BENEDICTE F 214 1:08:14 13:39 4.40
393 3625 THOMAS CORALIE F 215 1:08:17 13:39 4.39
394 3447 CREMER CÉLINE F 216 1:17:42 15:32 3.86
395 3834 SCHOULEUR ADRIEN H 179 1:18:04 15:37 3.84
396 3774 LÉPORÉ EMANUELE H 180 1:19:17 15:51 3.78
397 3735 ABOUHAFES KARIM H 181 1:19:20 15:52 3.78
398 3835 WAROQUIERS DAVID H 182 1:20:57 16:11 3.71
399 4019 GILLES MATHILDE F 217 1:22:48 16:33 3.62
400 4018 GOBERT CHLOÉ F 218 1:22:49 16:34 3.62
401 3813 VAN POUCKE MARJORIE F 219 1:35:09 19:02 3.15
402 3815 GAUDET ISABELLE F 220 1:35:10 19:02 3.15
403 3814 LI PUMA AURELIE F 221 1:35:41 19:08 3.14
404 3810 MARLAIR CAROLINE F 222 1:35:42 19:08 3.14
               
Nos dernières videos